This demonstration page uses our WeatherBlox Daily Observations layout. Learn more.

Left ArrowRight Arrow

Hourly Observations for April 3, 2017

Temp ( °F °C ) Dew Point ( °F °C ) Humidity (%) Winds ( mph kmh ) Pressure ( in mb ) Visibility ( mi km ) Precip ( " mm )
12:53 am 00:53 Mostly Clear 34 1.1 31 -0.6 89 89 WSW 7 11 29.89 1012 10 16 0.00 0.00
1:16 am 01:16 Mostly Cloudy 36 2 34 1 93 93 WSW 12 19 29.94 1014 10 16 0.00 0.00
1:53 am 01:53 Cloudy 36 2.2 33 0.6 89 89 W 14 22 29.89 1012 10 16 0.00 0.00
2:53 am 02:53 Cloudy 36 2.2 33 0.6 89 89 WSW 13 20 29.91 1013 10 16 0.00 0.00
3:14 am 03:14 Cloudy 36 2 34 1 93 93 WSW 12 19 29.94 1014 10 16 0.00 0.00
3:46 am 03:46 Cloudy 36 2 34 1 93 93 SW 12 19 29.94 1014 10 16 0.00 0.00
3:53 am 03:53 Cloudy 36 2.2 34 1.1 93 93 WSW 12 19 29.90 1013 10 16 0.00 0.03
4:53 am 04:53 Cloudy 37 2.8 34 1.1 89 89 WSW 12 19 29.89 1012 10 16 0.00 0.00
5:24 am 05:24 Cloudy 36 2 34 1 93 93 W 13 20 29.94 1014 10 16 0.00 0.00
5:53 am 05:53 Cloudy with Light Rain 35 1.7 34 1.1 96 96 W 12 19 29.89 1012 10 16 0.00 0.03
6:53 am 06:53 Cloudy 35 1.7 34 1.1 96 96 NW 13 20 29.90 1013 10 16 0.02 0.51
7:53 am 07:53 Cloudy 35 1.7 34 1.1 96 96 NW 13 20 29.91 1013 10 16 0.00 0.00
8:11 am 08:11 Cloudy 35 1.7 34 1.1 96 96 NW 14 22 29.97 1015 10 16 0.00 0.00
8:33 am 08:33 Cloudy 35 1.7 34 1.1 96 96 NW 12 19 29.97 1015 10 16 0.00 0.00
8:50 am 08:50 Cloudy 36 2 34 1 93 93 NW 12 19 29.97 1015 10 16 0.00 0.00
8:53 am 08:53 Cloudy 35 1.7 34 1.1 96 96 NW 13 20 29.92 1013 10 16 0.00 0.00
9:53 am 09:53 Cloudy 35 1.7 34 1.1 96 96 WNW 14 22 29.93 1014 10 16 0.00 0.03
10:35 am 10:35 Cloudy 35 1.7 34 1.1 96 96 NW 15 24 29.97 1015 9 14 0.00 0.03
10:53 am 10:53 Cloudy 36 2.2 34 1.1 93 93 NW 13 20 29.95 1014 10 16 0.00 0.03
11:53 am 11:53 Cloudy 37 2.8 35 1.7 93 93 NNW 14 22 29.97 1015 10 16 0.00 0.00
12:02 pm 12:02 Cloudy 37 2.8 35 1.7 93 93 NNW 17 28 29.97 1015 10 16 0.00 0.00
12:34 pm 12:34 Cloudy 37 3 36 2 93 93 NW 16 26 29.97 1015 10 16 0.00 0.00
12:53 pm 12:53 Cloudy 37 2.8 35 1.7 93 93 NW 15 24 29.97 1015 10 16 0.00 0.00
1:37 pm 13:37 Cloudy 37 2.8 34 1.1 89 89 NW 15 24 29.97 1015 10 16 0.00 0.00
1:53 pm 13:53 Cloudy 37 2.8 35 1.7 93 93 NW 16 26 29.97 1015 10 16 0.00 0.00
2:38 pm 14:38 Cloudy 39 4 36 2 87 87 N 18 30 29.97 1015 10 16 0.00 0.00
2:53 pm 14:53 Cloudy 39 3.9 35 1.7 86 86 N 16 26 29.97 1015 10 16 0.00 0.00
3:53 pm 15:53 Cloudy 38 3.3 35 1.7 89 89 NNW 14 22 29.98 1015 10 16 0.00 0.00
4:41 pm 16:41 Cloudy 41 5 35 1.7 79 79 NNW 10 17 29.97 1015 10 16 0.00 0.00
4:53 pm 16:53 Cloudy 41 5 35 1.7 79 79 NW 8 13 29.98 1015 10 16 0.00 0.00
5:28 pm 17:28 Cloudy 39 4 36 2 87 87 W 13 20 30.00 1016 10 16 0.00 0.00
5:53 pm 17:53 Cloudy 40 4.4 36 2.2 86 86 WNW 12 19 29.99 1016 10 16 0.00 0.00
6:53 pm 18:53 Cloudy 37 2.8 35 1.7 93 93 WNW 10 17 30.01 1016 10 16 0.01 0.25
7:53 pm 19:53 Cloudy 38 3.3 35 1.7 89 89 NE 5 7 30.04 1017 10 16 0.00 0.00
8:38 pm 20:38 Cloudy 37 3 36 2 93 93 E 9 15 30.09 1019 10 16 0.00 0.00
8:45 pm 20:45 Cloudy 37 3 36 2 93 93 ESE 7 11 30.09 1019 10 16 0.00 0.00
8:53 pm 20:53 Cloudy 36 2.2 35 1.7 97 97 SE 6 9 30.05 1018 10 16 0.00 0.03
9:53 pm 21:53 Cloudy 36 2.2 35 1.7 97 97 SSW 5 7 30.06 1018 10 16 0.00 0.00
10:53 pm 22:53 Cloudy 36 2.2 35 1.7 97 97 WSW 7 11 30.07 1018 10 16 0.00 0.00
11:53 pm 23:53 Cloudy 36 2.2 35 1.7 97 97 SSW 8 13 30.07 1018 10 16 0.00 0.00

Powered by AerisWeather